Wind_Speed
13 14 14 14 14 13 13 13 12 11 10 9 8 8 7 6 6 6 6 6 5 5 5 4 4 3 3 3 2 2 2 2 2 2 2 3 3 4 4 5 5 6 5
11 12 13 13 13 12 12 12 12 11 10 9 9 7 7 6 6 6 6 5 5 5 5 4 3 3 3 3 2 2 2 1 2 2 3 3 3 3 4 5 5 6 6
10 10 11 11 11 12 12 11 11 10 10 9 8 7 6 6 5 5 5 5 5 4 5 4 4 4 4 3 3 2 2 1 1 2 2 3 3 3 4 4 4 5 6
8 9 9 9 10 10 10 11 11 10 10 9 8 7 7 6 5 5 5 5 5 5 6 6 5 5 4 4 3 2 1 0 1 1 2 3 3 3 3 4 5 5 6
7 7 7 7 8 9 9 9 9 9 9 8 8 7 6 6 5 5 5 5 5 5 5 5 5 5 4 4 3 2 2 1 1 2 3 3 4 4 5 5 5 6 6
6 6 6 5 6 6 7 8 8 8 8 7 7 6 6 5 5 4 4 4 4 4 4 4 4 4 3 3 3 3 3 2 2 3 3 3 4 5 6 6 6 6 6
5 5 5 5 4 5 6 6 6 6 6 6 6 5 4 4 4 3 3 3 3 3 2 2 2 2 2 2 2 3 3 3 4 4 4 4 5 5 6 6 6 6 7
4 5 5 5 4 5 4 4 4 4 5 5 4 4 3 3 2 1 1 1 1 1 0 0 1 1 2 2 2 3 4 4 5 5 5 6 6 6 7 7 7 7 8
4 4 5 5 5 5 5 4 5 5 4 4 4 3 3 2 2 1 1 1 1 2 2 3 3 3 3 3 4 4 5 6 6 6 6 7 7 8 8 9 9 9 10
5 5 5 5 6 6 6 5 5 5 5 5 4 3 3 4 3 3 3 3 3 4 4 4 4 4 4 5 6 6 7 7 7 8 8 8 8 9 9 10 11 11 12
7 6 6 6 7 7 7 7 6 6 6 6 6 5 5 5 5 4 4 5 5 6 6 6 6 6 6 7 8 8 8 9 10 10 10 11 11 11 11 11 12 12 13
9 8 8 8 8 9 9 9 9 9 8 7 7 6 6 7 7 7 6 7 8 8 8 8 8 9 9 10 10 11 11 12 13 12 12 13 13 13 13 13 14 14 15
11 10 10 9 11 11 11 11 11 11 10 10 9 9 8 9 9 9 9 10 11 11 11 11 11 11 12 12 13 13 14 14 15 15 15 15 15 15 15 15 15 16 17
13 12 12 12 12 13 14 13 13 13 12 12 12 12 11 11 12 11 12 12 13 13 14 14 14 14 14 15 15 16 16 16 16 17 17 17 18 17 16 17 17 18 18
15 14 14 15 15 14 14 14 14 14 14 14 15 14 14 14 14 14 14 15 15 16 16 16 17 17 17 17 17 17 17 17 18 18 18 19 20 20 19 19 19 20 21
16 16 17 17 16 16 15 16 16 16 16 16 16 16 16 16 16 16 16 17 17 17 18 18 19 19 19 20 20 20 20 20 20 21 21 22 23 23 22 21 22 22 22
18 17 18 19 18 17 17 17 18 18 18 18 18 18 19 19 20 20 20 20 19 19 20 20 20 20 21 22 23 23 23 23 23 23 23 23 23 23 23 23 23 24 24
21 20 20 19 18 19 20 20 19 20 21 21 21 21 22 23 23 23 23 23 23 22 22 23 24 24 24 24 25 25 25 25 25 26 26 24 24 24 24 23 23 24 25
23 23 23 22 21 22 22 22 22 22 22 22 23 24 24 25 25 25 25 25 25 25 25 26 26 27 26 27 27 27 27 26 26 27 27 26 26 26 26 26 26 27 27
24 24 23 23 23 24 24 23 24 24 25 25 26 27 27 27 27 27 28 28 28 28 28 28 28 29 29 30 30 30 30 30 30 30 29 29 29 29 29 30 29 28 28
25 26 25 24 24 25 25 26 26 26 27 27 27 28 28 28 28 29 29 30 30 31 31 31 31 31 32 32 32 33 33 33 32 32 32 31 31 31 32 32 31 30 31
26 26 25 25 25 25 26 26 27 28 28 28 28 29 29 30 30 30 30 31 32 33 33 33 33 34 34 35 35 35 34 34 34 34 34 33 34 34 33 33 32 32 33
27 28 28 27 27 28 28 27 27 28 29 30 30 30 31 31 31 31 32 33 33 34 34 34 34 35 35 36 36 36 36 36 36 36 36 36 35 36 35 34 34 34 34
29 29 29 28 29 30 30 29 29 29 29 30 31 32 32 32 33 33 34 34 34 34 35 35 35 36 36 37 37 37 37 37 38 38 37 37 37 37 36 36 36 36 35
28 28 29 29 30 30 30 30 30 30 31 31 32 33 34 34 34 34 34 34 35 35 35 35 36 36 36 37 37 38 38 38 38 38 37 38 38 37 37 37 36 37 36
29 29 29 30 30 30 31 32 32 32 32 32 33 34 34 34 34 35 35 35 36 36 36 35 35 35 35 35 36 37 37 37 38 38 38 38 38 38 38 38 38 38 38
Wind_Direction
45 45 48 51 53 54 55 55 61 66 72 77 82 86 90 96 97 98 105 108 107 115 123 131 137 135 129 129 140 145 165 184 194 219 225 221 227 236 244 247 256 258 259
44 44 44 49 53 54 55 54 58 65 72 78 81 82 84 92 101 102 102 105 109 115 112 106 104 111 122 135 143 152 161 182 209 227 224 231 245 249 252 252 260 258 260
45 43 41 42 47 53 55 57 59 62 69 76 80 82 85 89 97 103 107 107 102 98 107 105 100 100 105 113 121 121 129 133 245 250 229 234 247 260 260 254 263 267 269
43 41 37 37 40 44 48 53 57 58 60 65 71 74 79 87 96 102 106 107 104 98 91 95 93 92 92 95 97 92 79 27 324 284 266 251 249 259 267 273 272 273 273
32 34 32 34 37 39 42 47 52 55 56 59 65 69 73 79 92 100 102 103 103 100 91 94 95 93 89 87 78 70 53 23 349 321 295 272 264 269 274 277 278 278 275
21 21 21 23 29 29 32 40 45 46 48 51 57 63 68 75 85 97 103 100 95 92 92 102 97 94 87 84 64 41 27 11 353 342 330 310 296 288 284 280 280 281 282
7 1 1 5 7 10 16 29 34 36 38 41 49 56 64 67 75 90 92 92 89 92 101 102 92 81 63 51 25 7 4 2 352 340 331 319 309 299 294 288 287 289 290
351 350 348 348 345 343 350 360 7 11 17 27 34 35 48 55 55 62 108 96 81 70 30 351 350 335 338 344 342 339 336 334 333 329 327 321 311 303 297 293 292 292 291
302 319 331 331 327 319 318 322 331 339 345 356 2 7 10 8 357 327 276 240 262 277 287 289 288 298 311 314 313 317 320 319 320 317 316 315 308 303 298 297 295 293 294
286 287 295 297 305 308 306 302 306 310 317 323 324 327 329 328 326 312 290 265 269 283 292 296 296 304 307 306 303 306 311 307 307 307 307 308 306 302 298 296 293 292 293
279 272 272 278 287 288 290 294 295 295 300 303 302 301 302 304 306 308 295 279 275 276 280 287 291 296 298 297 297 297 302 303 301 297 297 299 299 295 293 292 291 291 292
266 264 266 275 275 280 285 287 291 292 291 291 290 291 291 294 293 288 287 284 275 271 272 276 280 285 287 290 291 292 293 294 293 291 292 296 296 292 287 287 290 289 291
268 266 265 272 271 271 275 275 279 280 282 284 286 284 283 287 286 285 283 283 281 277 274 273 278 281 283 287 288 289 289 293 292 290 289 293 293 292 284 284 289 288 288
269 269 268 273 275 270 268 272 277 277 279 282 284 283 283 283 283 283 284 283 284 282 277 274 276 279 281 283 285 286 286 289 291 291 290 292 292 292 288 286 287 290 290
267 269 273 276 274 272 268 271 274 275 277 278 278 279 280 280 281 283 281 281 280 281 277 276 276 277 281 284 284 285 285 287 287 288 288 289 290 291 288 287 286 287 289
265 266 268 272 271 271 268 269 269 272 273 273 274 273 275 278 281 282 282 283 282 281 280 279 278 279 280 281 282 282 283 283 284 284 284 286 287 287 286 286 285 286 289
260 262 266 270 268 271 273 275 272 272 274 274 274 274 275 276 277 278 279 280 282 283 281 280 279 281 280 281 282 282 282 282 282 283 284 285 284 285 286 286 287 289 291
258 261 263 265 268 272 274 275 276 274 275 276 275 276 275 276 276 276 277 278 278 277 278 278 277 279 280 281 281 281 281 281 280 281 282 283 285 285 286 289 289 292 293
260 261 264 265 266 269 272 274 275 275 276 277 277 275 274 275 277 277 278 278 277 276 276 277 278 278 279 279 278 278 278 280 280 282 281 282 283 284 285 286 288 290 292
261 261 263 265 267 268 270 272 274 275 277 278 278 276 276 275 276 276 275 276 277 277 276 277 277 277 277 277 277 278 279 281 281 282 281 280 282 284 285 285 286 287 288
261 262 262 263 266 268 269 271 273 274 276 278 278 279 278 277 277 276 276 277 278 278 277 276 276 276 276 276 277 278 279 281 280 280 280 280 282 283 284 285 286 285 286
261 262 262 266 267 269 270 271 272 273 275 276 276 277 279 278 278 278 277 277 277 278 277 276 275 275 276 276 277 277 278 279 279 279 279 279 280 280 282 283 284 283 284
260 263 266 268 269 270 272 272 273 274 275 275 276 277 279 280 279 278 278 277 277 277 276 275 275 275 276 277 277 278 277 277 278 277 278 279 280 280 280 281 281 282 283
261 263 265 268 271 272 272 274 274 275 275 276 276 277 278 280 281 280 279 278 278 278 277 277 277 277 277 278 278 278 278 278 277 276 276 278 280 279 280 281 281 282 283
263 264 267 268 270 271 273 274 275 276 276 276 277 277 279 280 280 281 280 279 278 278 278 279 279 279 279 278 278 279 279 278 278 277 278 278 279 279 280 280 281 281 282
265 267 267 269 271 271 273 274 274 274 275 275 277 278 279 281 281 280 280 279 281 281 280 280 281 281 281 280 280 279 278 277 278 278 278 279 278 278 278 279 280 281 281
Height
5904 5902 5900 5898 5896 5895 5893 5892 5891 5890 5889 5889 5888 5888 5888 5888 5888 5888 5888 5889 5889 5889 5889 5889 5890 5890 5890 5890 5890 5891 5891 5891 5891 5891 5890 5890 5890 5891 5891 5890 5890 5890 5890
5906 5904 5902 5900 5899 5897 5896 5894 5893 5892 5891 5891 5890 5890 5889 5889 5889 5889 5890 5890 5890 5890 5890 5890 5890 5890 5890 5890 5891 5891 5891 5891 5890 5890 5889 5889 5890 5889 5889 5889 5889 5888 5888
5906 5905 5904 5902 5901 5899 5898 5896 5895 5894 5893 5892 5892 5891 5891 5891 5891 5891 5891 5891 5890 5890 5890 5890 5890 5890 5890 5890 5890 5890 5890 5890 5890 5889 5889 5889 5888 5888 5888 5888 5887 5887 5886
5907 5906 5905 5904 5902 5901 5899 5898 5897 5895 5894 5894 5893 5893 5892 5892 5892 5892 5892 5891 5891 5891 5891 5891 5890 5890 5890 5890 5890 5890 5889 5889 5889 5888 5888 5888 5887 5887 5887 5887 5886 5885 5885
5907 5906 5906 5904 5903 5902 5901 5899 5898 5897 5896 5895 5895 5894 5894 5893 5893 5892 5892 5892 5892 5892 5891 5891 5891 5891 5890 5890 5890 5889 5889 5888 5888 5887 5887 5886 5886 5886 5885 5885 5884 5884 5883
5907 5907 5906 5904 5904 5903 5902 5900 5899 5899 5898 5897 5896 5895 5895 5894 5893 5893 5893 5892 5892 5892 5892 5892 5891 5891 5891 5890 5890 5889 5888 5887 5887 5886 5886 5885 5884 5884 5883 5883 5882 5882 5881
5906 5906 5905 5904 5904 5903 5902 5901 5900 5899 5899 5898 5897 5896 5895 5894 5894 5893 5893 5892 5892 5892 5892 5891 5891 5891 5890 5890 5889 5888 5888 5887 5886 5885 5884 5884 5883 5882 5881 5880 5880 5879 5878
5904 5904 5904 5904 5903 5903 5902 5901 5900 5899 5899 5898 5897 5896 5895 5895 5894 5893 5893 5892 5892 5892 5891 5891 5890 5890 5889 5889 5888 5887 5887 5886 5885 5884 5883 5882 5881 5880 5879 5878 5878 5877 5876
5902 5902 5903 5903 5902 5901 5901 5900 5899 5899 5898 5897 5896 5896 5895 5894 5894 5893 5892 5892 5891 5890 5890 5889 5889 5888 5888 5887 5887 5886 5885 5884 5883 5882 5881 5880 5878 5877 5876 5876 5875 5874 5873
5900 5900 5900 5901 5901 5900 5899 5899 5898 5898 5897 5896 5895 5895 5894 5893 5893 5892 5891 5890 5890 5889 5889 5888 5888 5887 5886 5886 5885 5884 5883 5882 5881 5880 5878 5877 5876 5875 5874 5873 5872 5871 5870
5898 5898 5898 5898 5898 5897 5897 5897 5897 5896 5896 5895 5894 5893 5892 5892 5891 5890 5890 5889 5888 5888 5887 5886 5886 5885 5884 5883 5882 5881 5881 5879 5878 5877 5876 5874 5873 5872 5870 5869 5868 5867 5866
5895 5895 5895 5895 5895 5895 5895 5895 5894 5894 5893 5893 5892 5891 5890 5890 5889 5888 5887 5887 5886 5885 5884 5884 5883 5882 5881 5880 5879 5878 5877 5876 5875 5873 5872 5871 5869 5867 5866 5865 5864 5863 5861
5891 5891 5891 5891 5891 5891 5892 5892 5892 5891 5891 5890 5889 5888 5887 5887 5886 5885 5885 5884 5883 5882 5881 5880 5880 5879 5878 5877 5876 5875 5873 5872 5870 5869 5868 5866 5865 5863 5861 5860 5859 5858 5856
5886 5887 5887 5887 5887 5887 5887 5887 5888 5888 5887 5887 5886 5885 5884 5883 5883 5882 5881 5880 5879 5878 5878 5877 5876 5875 5874 5873 5872 5871 5869 5868 5866 5865 5863 5862 5860 5858 5857 5855 5854 5853 5851
5882 5882 5882 5882 5883 5883 5883 5883 5884 5883 5883 5882 5882 5881 5881 5880 5879 5878 5877 5876 5875 5874 5873 5872 5871 5870 5869 5868 5867 5866 5864 5863 5861 5860 5858 5857 5855 5853 5851 5849 5848 5846 5845
5877 5877 5877 5878 5878 5879 5879 5879 5879 5879 5878 5878 5877 5876 5875 5875 5874 5873 5872 5871 5870 5869 5868 5867 5866 5865 5864 5863 5861 5860 5859 5857 5856 5854 5853 5851 5849 5847 5845 5843 5841 5840 5838
5871 5871 5872 5873 5873 5874 5874 5874 5874 5874 5873 5872 5872 5871 5870 5869 5868 5867 5866 5865 5864 5863 5862 5861 5860 5859 5858 5856 5855 5853 5852 5850 5849 5847 5846 5844 5842 5840 5838 5836 5835 5833 5832
5866 5865 5866 5867 5868 5868 5868 5868 5868 5868 5867 5867 5866 5865 5864 5863 5862 5861 5860 5859 5857 5856 5855 5854 5853 5852 5851 5849 5847 5845 5843 5842 5841 5839 5837 5836 5834 5833 5831 5830 5828 5826 5824
5859 5860 5860 5860 5861 5862 5862 5862 5862 5861 5861 5860 5859 5858 5857 5856 5854 5853 5852 5851 5850 5849 5848 5847 5846 5844 5842 5840 5838 5836 5835 5834 5833 5831 5829 5828 5826 5825 5823 5822 5820 5819 5816
5853 5853 5853 5854 5854 5855 5855 5855 5855 5854 5853 5853 5852 5851 5849 5848 5847 5845 5844 5843 5842 5841 5839 5838 5837 5836 5834 5832 5830 5828 5826 5825 5824 5823 5821 5820 5818 5816 5815 5813 5812 5810 5808
5846 5846 5846 5847 5848 5848 5848 5848 5847 5846 5846 5844 5843 5842 5841 5839 5838 5836 5835 5834 5832 5831 5830 5829 5828 5827 5825 5823 5821 5820 5818 5816 5815 5813 5812 5810 5809 5807 5806 5804 5803 5801 5799
5839 5840 5840 5840 5841 5841 5840 5840 5839 5838 5837 5836 5835 5833 5832 5830 5828 5827 5826 5824 5823 5821 5820 5819 5818 5816 5815 5813 5812 5810 5808 5807 5805 5803 5801 5800 5799 5797 5795 5794 5792 5791 5789
5832 5833 5833 5833 5833 5832 5832 5831 5830 5829 5828 5827 5826 5824 5823 5821 5819 5817 5816 5814 5812 5811 5809 5808 5807 5806 5804 5802 5801 5799 5797 5796 5794 5792 5791 5789 5788 5787 5785 5784 5782 5780 5778
5824 5824 5824 5824 5824 5824 5823 5822 5821 5820 5819 5818 5816 5815 5813 5811 5809 5807 5805 5803 5802 5800 5798 5797 5796 5794 5793 5791 5789 5787 5786 5784 5783 5781 5779 5778 5777 5776 5774 5773 5771 5769 5768
5815 5816 5815 5816 5815 5814 5813 5812 5811 5810 5809 5808 5806 5805 5803 5801 5799 5797 5794 5792 5790 5788 5787 5785 5783 5782 5781 5779 5777 5775 5774 5772 5771 5769 5768 5767 5766 5764 5763 5761 5760 5758 5756
5806 5806 5806 5806 5806 5805 5804 5803 5801 5800 5799 5798 5796 5795 5792 5790 5788 5786 5784 5781 5779 5777 5775 5773 5772 5770 5769 5767 5765 5763 5762 5760 5759 5757 5757 5755 5754 5753 5751 5750 5748 5747 5745